Flag for United Arab Emirates Weather past 2 weeks in Dubai, Dubai, United Arab Emirates

Now
95 °F

Clear.


Feels Like: 97 °F
Forecast: 96 / 105 °F
Wind: 5 mph from Southwest

Location: Dubai International Airport

Current Time: Aug 4, 2015 at 8:03:56 AM

Latest Report: Aug 4, 2015 at 7:00 AM


Visibility: 5 mi

Pressure: 29.62 "Hg

Humidity: 36%

Dew point: 64 °F

Historic Weather in Dubai — Graph

°F

Dubai temperature yesterday

Maximum temperature yesterday: 109 °F (at 1:00 PM)
Minimum temperature yesterday: 93 °F (at 6:00 AM)
Average temperature yesterday: 100 °F

Past Weeks' High & Low Weather Summary

 TemperatureHumidityPressure
High113 °F (Jul 24, 2:00 PM)75% (Jul 23, 10:00 PM)29.62 "Hg (Jul 23, 10:00 PM)
Low86 °F (Jul 20, 6:00 AM)10% (Jul 20, 6:00 PM)29.39 "Hg (Jul 20, 6:00 AM)
Average101 °F32%29.48 "Hg
* Reported Jul 20 6:00 AM — Aug 4 6:00 AM, Dubai, Weather by CustomWeather, © 2015

Note: Actual official high and low records may vary slightly from our data, if they occured in-between our weather recording intervals... More about our weather records

Advertising

Dubai weather history for previous 24 hours

 ConditionsComfort  
Time TempWeatherWind HumidityBarometerVisibility
6:00 AM
Tue, Aug 4
95 °FClear.7 mph39%29.59 "Hg5 mi
5:00 AM95 °FPassing clouds.6 mph44%29.59 "HgN/A
4:00 AM95 °FPassing clouds.9 mph47%29.56 "HgN/A
3:00 AM97 °FPassing clouds.8 mph42%29.56 "HgN/A
2:00 AM99 °FPassing clouds.7 mph37%29.56 "HgN/A
1:00 AM100 °FClear.7 mph35%29.56 "Hg10 mi
12:00 AM100 °FPassing clouds.10 mph35%29.56 "HgN/A
11:00 PM
Mon, Aug 3
100 °FClear.10 mph33%29.59 "Hg10 mi
10:00 PM102 °FPassing clouds.7 mph29%29.59 "HgN/A
9:00 PM100 °FClear.8 mph29%29.56 "Hg10 mi
8:00 PM100 °FPassing clouds.9 mph31%29.56 "HgN/A
7:00 PM99 °FClear.10 mph42%29.53 "Hg4 mi
6:00 PM100 °FClear.12 mph40%29.53 "Hg5 mi
5:00 PM102 °FClear.15 mph31%29.53 "Hg4 mi
4:00 PM102 °FClear.15 mph33%29.53 "Hg4 mi
3:00 PM100 °FClear.15 mph37%29.53 "Hg4 mi
2:00 PM104 °FClear.13 mph31%29.53 "Hg4 mi
1:00 PM109 °FClear.7 mph17%29.56 "Hg4 mi
12:00 PM108 °FClear.6 mph19%29.59 "Hg4 mi
11:00 AM104 °FClear.8 mph21%29.62 "Hg5 mi
10:00 AM100 °FPassing clouds.10 mph25%29.62 "HgN/A
9:00 AM99 °FPassing clouds.12 mph27%29.62 "HgN/A
8:00 AM97 °FSunny.10 mph28%29.62 "Hg10 mi
Weather by CustomWeather, © 2015

See weather overviewHow to use our weather pages